Location: Alpha Ridge Park
(39.3209°N, 76.9128°W)
Time: 21:19:35
(UTC-04:00)

Transit 2A - Pass Details

Date: 25 May 2019
Orbit: 593 x 966 km, 66.7° (Epoch: 23 June)

Event Time Altitude Azimuth Distance (km) Brightness Sun altitude
Rises 17:30:45 0° 326° (NNW) 3,519 9.9 31.0°
Reaches altitude 10° 17:33:25 10° 323° (NW) 2,525 9.3 30.5°
Maximum altitude 17:39:04 54° 247° (WSW) 983 7.8 29.4°
Drops below altitude 10° 17:44:08 10° 171° (S) 2,264 8.4 28.4°
Sets 17:46:25 0° 167° (SSE) 3,125 9.0 28.0°
